Weather History for KDSV - April, 2013

Change the Weather History Date:

Sunday, April 7, 2013

  Actual Average Record
Temperature  
Mean Temperature 59 °F -  
Max Temperature 73 °F 50 °F 83 °F (1991)
Min Temperature 46 °F 29 °F 12 °F (1972)
Degree Days  
Heating Degree Days 6    
Growing Degree Days 9 (Base 50)    
Moisture  
Dew Point 31 °F    
Average Humidity 39    
Maximum Humidity 68    
Minimum Humidity 28    
Precipitation  
Precipitation 0.00 in - - ()
Sea Level Pressure  
Sea Level Pressure 29.91 in    
Wind  
Wind Speed 12 mph (SSW)    
Max Wind Speed 20 mph    
Max Gust Speed 32 mph    
Visibility 10 miles    
Events      
Averages and records for this station are not official NWS values.
T = Trace of Precipitation, MM = Missing Value Source: NWS Daily Summary

Daily Weather History Graph

Daily Weather History Graph

Search for Another Location

Airport or City:

Trip Planner

Search our weather history database for the weather conditions in past years. The results will help you decide how hot, cold, wet, or windy it might be!

Date:

Astronomy

Apr. 07, 2013 Rise Set
Actual Time 6:42 AM EDT 7:43 PM EDT
Civil Twilight 6:13 AM EDT 8:12 PM EDT
Nautical Twilight 5:39 AM EDT 8:47 PM EDT
Astronomical Twilight 5:03 AM EDT 9:23 PM EDT
Moon 5:02 AM EDT (4/7) 5:11 PM EDT (4/7)
Length of Visible Light 13h 59m
Length of Day
13h 01m
Waning Crescent, 8% of the Moon is Illuminated
Apr 7
Waning Crescent
Apr 10
New
Apr 18
First Quarter
Apr 25
Full
May 2
Last Quarter

Hourly Weather History & Observations

Time (EDT) Temp. Windchill Dew Point Humidity Pressure Visibility Wind Dir Wind Speed Gust Speed Precip Events Conditions
12:54 AM 48.9 °F - 17.1 °F 28% 30.07 in 10.0 mi ESE 9.2 mph - N/A   Overcast
1:54 AM 48.9 °F - 17.1 °F 28% 30.03 in 10.0 mi SSE 11.5 mph 18.4 mph N/A   Overcast
2:54 AM 48.9 °F - 19.0 °F 31% 30.01 in 10.0 mi SSE 6.9 mph - N/A   Overcast
3:54 AM 48.9 °F - 19.0 °F 31% 29.98 in 10.0 mi SE 8.1 mph - N/A   Overcast
4:54 AM 48.9 °F - 19.9 °F 32% 29.96 in 10.0 mi SE 13.8 mph 23.0 mph N/A   Clear
5:54 AM 48.9 °F - 21.0 °F 33% 29.95 in 10.0 mi SSE 17.3 mph 23.0 mph N/A   Clear
6:54 AM 48.9 °F - 21.9 °F 35% 29.93 in 10.0 mi SSE 15.0 mph 25.3 mph N/A   Clear
7:54 AM 50.0 °F - 23.0 °F 35% 29.91 in 10.0 mi SSE 15.0 mph 23.0 mph N/A   Partly Cloudy
8:54 AM 52.0 °F - 25.0 °F 35% 29.89 in 10.0 mi SSE 19.6 mph 25.3 mph N/A   Clear
9:54 AM 57.0 °F - 28.0 °F 33% 29.86 in 10.0 mi South 13.8 mph 31.1 mph N/A   Clear
10:54 AM 62.1 °F - 30.0 °F 30% 29.83 in 10.0 mi South 15.0 mph 28.8 mph N/A   Mostly Cloudy
11:54 AM 64.0 °F - 32.0 °F 30% 29.81 in 10.0 mi South 17.3 mph 24.2 mph N/A   Mostly Cloudy
12:54 PM 66.0 °F - 33.1 °F 29% 29.79 in 10.0 mi South 11.5 mph 18.4 mph N/A   Overcast
1:54 PM 70.0 °F - 37.9 °F 31% 29.78 in 10.0 mi SW 15.0 mph 28.8 mph N/A   Clear
2:54 PM 72.0 °F - 37.0 °F 28% 29.77 in 10.0 mi SSW 11.5 mph 32.2 mph N/A   Scattered Clouds
3:54 PM 72.0 °F - 37.0 °F 28% 29.77 in 10.0 mi WSW 9.2 mph 21.9 mph N/A   Mostly Cloudy
4:45 PM 71.6 °F - 41.0 °F 33% 29.77 in 10.0 mi WNW 11.5 mph 24.2 mph N/A   Scattered Clouds
4:54 PM 71.1 °F - 44.1 °F 38% 29.80 in 10.0 mi NW 18.4 mph 26.5 mph N/A   Partly Cloudy
5:54 PM 64.9 °F - 44.1 °F 47% 29.85 in 10.0 mi WNW 12.7 mph 24.2 mph N/A   Partly Cloudy
6:54 PM 61.0 °F - 42.1 °F 50% 29.90 in 10.0 mi WNW 12.7 mph 19.6 mph N/A   Partly Cloudy
7:54 PM 57.9 °F - 41.0 °F 53% 29.94 in 10.0 mi West 3.5 mph - N/A   Clear
8:54 PM 53.1 °F - 39.9 °F 61% 29.99 in 10.0 mi NNW 15.0 mph 19.6 mph N/A   Clear
9:54 PM 50.0 °F - 39.0 °F 66% 30.03 in 10.0 mi NNW 9.2 mph - N/A   Overcast
10:54 PM 46.9 °F - 36.0 °F 66% 30.05 in 10.0 mi NNW 9.2 mph - N/A   Mostly Cloudy
11:54 PM 46.0 °F 44.8 °F 36.0 °F 68% 30.06 in 10.0 mi NNW 3.5 mph - N/A   Overcast